Location: Newark
(42.9277°N, 71.8621°W)
Time: 22:05:36
(UTC+00:00)

SR - Visible Passes

Search period start: 25 May 2020 00:00
Search period end: 04 June 2020 00:00
Orbit: 581 x 874 km, 66.7° (Epoch: 24 May)

Date Brightness Start Highest point End Pass type
(mag) Time Alt. Az. Time Alt. Az. Time Alt. Az.
25 May ? 05:31:16 10° NNW 05:35:22 36° NE 05:36:58 27° E visible
25 May ? 07:13:46 10° WNW 07:16:18 21° W 07:16:18 21° W visible
26 May ? 04:42:07 10° N 04:45:22 20° NE 04:47:47 13° E visible
26 May ? 06:23:29 10° NW 06:27:08 46° W 06:27:08 46° W visible
27 May ? 03:53:44 10° NNE 03:55:10 11° NE 03:56:35 10° NE visible
27 May ? 05:33:42 10° NNW 05:38:05 73° ENE 05:38:05 73° ENE visible
28 May ? 04:44:15 10° NNW 04:48:16 34° NE 04:49:07 31° ENE visible
28 May ? 06:26:37 10° WNW 06:28:28 19° WNW 06:28:28 19° WNW visible
29 May ? 03:55:08 10° N 03:58:15 19° NE 04:00:14 14° ENE visible
29 May ? 05:36:24 10° NW 05:39:36 42° WNW 05:39:36 42° WNW visible
30 May ? 03:07:00 10° NNE 03:08:02 11° NE 03:09:04 10° NE visible
30 May ? 04:46:39 10° NNW 04:50:47 66° NE 04:50:47 66° NE visible
31 May ? 03:57:13 10° NNW 04:01:10 32° NE 04:02:01 29° ENE visible
31 May ? 05:39:28 10° NW 05:41:23 20° WNW 05:41:23 20° WNW visible
01 Jun ? 03:08:09 10° N 03:11:09 18° NE 03:13:18 13° ENE visible
01 Jun ? 04:49:19 10° NW 04:52:40 47° WNW 04:52:40 47° WNW visible
02 Jun ? 02:20:36 10° NNE 02:20:54 10° NE 02:21:14 10° NE visible
02 Jun ? 03:59:36 10° NNW 04:03:55 63° ENE 04:03:59 62° ENE visible
03 Jun ? 03:10:12 10° NNW 03:14:05 30° NE 03:15:21 25° E visible
03 Jun ? 04:52:21 10° NW 04:54:44 23° W 04:54:44 23° W visible
